STARLINK-5867 (55918 NORAD) Tracking and Keplerian Element Data

This shows tracking and keplerian element data for the satellite.

Feedback or suggestion? Click here.




ElementValue
Catalog55918
NameSTARLINK-5867
Epoch Orbit840
Epoch Day127.25001157
Epoch Year2023
RAAN41.3086
Inclination70.0018
Eccentricity0.0003121
Argument of Perigee273.812
Mean Anonmoly353.2444
Mean Motion15.28976822
Decay Rate-0.00926165
L11 55918U 23037E 23127.25001157 -.00926165 00000+0 -35857-1 0 9998
L22 55918 70.0018 41.3086 0003121 273.8120 353.2444 15.28976822 8405



Live tracking and technical data element details for STARLINK-5867 (NORAD 55918). STARLINK-5867 can be tracked NOW for your location showing map with azimuth and elevation plus other details from your city location.







IsCatalogInMostPopularTable: catalog: 55918, numindb: 8
Update: records affected: 1



GetName: 55918 STARLINK-5867

Hit Count: updated at: Tue, 06 Jun 2023 02:30:41 GMT